Le nostre stazioni meteo in Italia

Pubblicità
Il mio iltempo24.it
Luqa, Malta (16597): Temperatura & dewpoint: 11.02.2019 14:00:00 - 17.02.2019 14:00:00 (CET)Luqa, Malta (16597): velocità del vento: 11.02.2019 14:00:00 - 17.02.2019 14:00:00 (CET)Luqa, Malta (16597): direzione del vento: 11.02.2019 14:00:00 - 17.02.2019 14:00:00 (CET)Luqa, Malta (16597): reduced air pressure: 11.02.2019 14:00:00 - 17.02.2019 14:00:00 (CET)Luqa, Malta (16597): visibility: 11.02.2019 14:00:00 - 17.02.2019 14:00:00 (CET)
Data & Tempo tt [°C] td [°C] ff [km/h] ff [kn] dd ppp [hPa] vv [km]
17.02.2019 14:00:00 13,0 6,0 9 5 ESE - 10
17.02.2019 13:00:00 13,2 5,8 5 3 E 1029,7 10
17.02.2019 12:00:00 14,0 6,0 4 2 - - 10
17.02.2019 11:00:00 15,0 6,0 5 3 NNO - 10
17.02.2019 10:00:00 13,4 6,2 8 4 N 1030,4 10
17.02.2019 09:00:00 13,0 6,0 5 3 N - 10
17.02.2019 08:00:00 10,0 6,0 5 3 NNO - 10
17.02.2019 07:00:00 7,9 5,0 9 5 NO 1029,8 10
17.02.2019 06:00:00 7,0 5,0 8 4 NO - 10
17.02.2019 05:00:00 7,0 4,0 5 3 NNE - 10
17.02.2019 04:00:00 7,6 5,2 4 2 NO 1028,7 10
17.02.2019 03:00:00 7,0 5,0 4 2 NNO - 10
17.02.2019 02:00:00 9,0 5,0 4 2 NNE - 10
17.02.2019 01:00:00 9,4 5,6 4 2 - 1029,7 10
17.02.2019 00:00:00 10,0 4,0 8 4 NNE - 10
16.02.2019 23:00:00 11,0 4,0 11 6 NNE - 10
16.02.2019 22:00:00 11,1 4,3 15 8 NE 1029,6 10
16.02.2019 21:00:00 11,0 3,0 13 7 ENE - 10
16.02.2019 20:00:00 11,0 2,0 15 8 ENE - 10
16.02.2019 19:00:00 11,2 2,1 15 8 ENE 1028,6 10
16.02.2019 18:00:00 11,0 2,0 21 11 ENE - 10
16.02.2019 17:00:00 12,0 3,0 26 14 NE - 10
16.02.2019 16:00:00 12,1 4,1 28 15 NE 1027,4 10
16.02.2019 15:00:00 12,0 4,0 31 17 NE - 10
16.02.2019 14:00:00 12,0 4,0 35 19 ENE - 10
16.02.2019 13:00:00 12,0 5,9 29 16 NNE 1027,4 10
16.02.2019 12:00:00 12,0 5,0 28 15 ENE - 10
16.02.2019 11:00:00 12,0 5,0 24 13 NE - 10
16.02.2019 10:00:00 9,5 5,2 15 8 ENE 1026,6 10
16.02.2019 09:00:00 11,0 4,0 28 15 ENE - 10
16.02.2019 08:00:00 10,0 4,0 26 14 ENE - 10
16.02.2019 07:00:00 8,0 4,5 15 8 NE 1024,5 10
16.02.2019 06:00:00 9,0 4,0 13 7 ENE - 8
16.02.2019 05:00:00 10,0 4,0 34 18 NNE - 10
16.02.2019 04:00:00 8,3 4,7 9 5 NE 1023,3 10
16.02.2019 03:00:00 9,0 4,0 13 7 ENE - 10
16.02.2019 02:00:00 8,0 5,0 21 11 ENE - 10
16.02.2019 01:00:00 8,9 6,1 24 13 ENE 1023,8 10
16.02.2019 00:00:00 9,0 6,0 37 20 ENE - 10
15.02.2019 23:00:00 10,0 8,0 34 18 E - 10
15.02.2019 22:00:00 10,4 8,0 9 5 E 1022,4 10
15.02.2019 21:00:00 10,0 7,0 5 3 S - 10
15.02.2019 20:00:00 10,0 7,0 2 1 - - 10
15.02.2019 19:00:00 11,3 7,6 2 1 OSO 1023,0 10
15.02.2019 18:00:00 11,0 7,0 4 2 NO - 10
15.02.2019 17:00:00 13,0 7,0 9 5 NO - 10
15.02.2019 16:00:00 14,0 6,0 15 8 ONO - 10
15.02.2019 15:00:00 15,0 5,0 13 7 NNO - 10
15.02.2019 14:00:00 15,0 5,0 5 3 SO - 10
15.02.2019 13:00:00 16,2 3,4 4 2 - 1024,9 10
15.02.2019 12:00:00 16,0 4,0 9 5 E - 10
15.02.2019 11:00:00 15,0 6,0 8 4 NNE - 10
15.02.2019 10:00:00 13,8 6,5 18 10 NNO 1026,3 10
15.02.2019 09:00:00 13,0 6,0 11 6 NNO - 10
15.02.2019 08:00:00 11,0 8,0 5 3 NNO - 10
15.02.2019 07:00:00 7,7 5,0 5 3 NO 1026,3 10
15.02.2019 06:00:00 8,0 6,0 11 6 NO - 10
15.02.2019 05:00:00 8,0 5,0 9 5 NO - 10
15.02.2019 04:00:00 7,9 5,5 11 6 NO 1026,9 10
15.02.2019 03:00:00 8,0 5,0 11 6 NNO - 10
15.02.2019 02:00:00 9,0 5,0 13 7 NO - 10
15.02.2019 01:00:00 9,3 5,1 13 7 NNO 1027,4 10
15.02.2019 00:00:00 9,0 5,0 16 9 NNO - 10
14.02.2019 23:00:00 10,0 4,0 11 6 NO - 10
14.02.2019 22:00:00 10,4 5,3 15 8 NO 1028,3 10
14.02.2019 21:00:00 10,0 5,0 13 7 NO - 10
14.02.2019 20:00:00 10,0 5,0 18 10 ONO - 10
14.02.2019 19:00:00 9,5 3,7 16 9 NO 1029,2 10
14.02.2019 18:00:00 10,0 4,0 13 7 NO - 10
14.02.2019 17:00:00 11,0 3,0 15 8 NO - 10
14.02.2019 16:00:00 12,5 2,6 21 11 NNO 1029,5 10
14.02.2019 15:00:00 13,0 2,0 24 13 NNO - 10
14.02.2019 14:00:00 13,0 2,0 26 14 NNO - 10
14.02.2019 13:00:00 13,0 1,8 22 12 N 1029,9 10
14.02.2019 12:00:00 13,0 0,0 21 11 N - 10
14.02.2019 11:00:00 12,0 0,0 21 11 N - 10
14.02.2019 10:00:00 11,5 0,0 22 12 NNE 1029,9 10
14.02.2019 09:00:00 11,0 1,0 26 14 NNE - 10
14.02.2019 08:00:00 10,0 0,0 22 12 NNE - 10
14.02.2019 07:00:00 8,4 -1,4 21 11 NNE 1029,0 10
14.02.2019 06:00:00 9,0 -2,0 26 14 NE - 10
14.02.2019 05:00:00 9,0 -2,0 26 14 NNE - 10
14.02.2019 04:00:00 8,9 -3,0 26 14 NNE 1027,4 10
14.02.2019 03:00:00 9,0 -2,0 31 17 NNE - 10
14.02.2019 02:00:00 9,0 -2,0 28 15 NNE - 10
14.02.2019 01:00:00 9,4 -1,3 24 13 NE 1027,5 10
14.02.2019 00:00:00 10,0 -1,0 29 16 NE - 10
13.02.2019 23:00:00 10,0 -3,0 31 17 NNE - 10
13.02.2019 22:00:00 9,6 -2,4 22 12 N 1027,2 10
13.02.2019 21:00:00 10,0 -2,0 31 17 NNE - 10
13.02.2019 20:00:00 10,0 -2,0 28 15 NNE - 10
13.02.2019 19:00:00 10,8 -3,2 46 25 N 1025,9 10
13.02.2019 18:00:00 11,0 -3,0 31 17 N - 10
13.02.2019 17:00:00 11,0 -2,0 29 16 N - 10
13.02.2019 16:00:00 12,0 -1,3 34 18 N 1024,9 10
13.02.2019 15:00:00 13,0 -2,0 31 17 N - 10
13.02.2019 14:00:00 12,0 -2,0 26 14 N - 10
13.02.2019 13:00:00 12,6 -0,8 28 15 N 1026,0 10
13.02.2019 12:00:00 13,0 -1,0 21 11 NNE - 10
13.02.2019 11:00:00 12,0 -1,0 21 11 NNE - 10
13.02.2019 10:00:00 12,1 -1,2 26 14 NNE 1026,5 10
13.02.2019 09:00:00 11,0 -2,0 28 15 NNE - 10
13.02.2019 08:00:00 11,0 -3,0 29 16 NNE - 10
13.02.2019 07:00:00 10,1 -3,2 35 19 N 1025,1 10
13.02.2019 06:00:00 10,0 -3,0 28 15 N - 10
13.02.2019 05:00:00 10,0 -2,0 37 20 N - 10
13.02.2019 04:00:00 10,3 -4,4 22 12 NNE 1024,5 10
13.02.2019 03:00:00 10,0 -1,0 22 12 NNE - 10
13.02.2019 02:00:00 11,0 0,0 26 14 N - 10
13.02.2019 01:00:00 10,6 -0,3 22 12 N 1024,1 10
13.02.2019 00:00:00 11,0 0,0 24 13 N - 10
12.02.2019 23:00:00 11,0 0,0 22 12 N - 10
12.02.2019 22:00:00 11,2 -0,4 34 18 NNE 1023,9 10
12.02.2019 21:00:00 11,0 0,0 26 14 N - 10
12.02.2019 20:00:00 12,0 0,0 34 18 N - 10
12.02.2019 19:00:00 12,1 0,4 37 20 N 1021,9 10
12.02.2019 18:00:00 12,0 0,0 29 16 N - 10
12.02.2019 17:00:00 13,0 1,0 37 20 N - 10
12.02.2019 16:00:00 12,9 4,4 34 18 N 1019,4 10
12.02.2019 15:00:00 13,0 4,0 22 12 N - 10
12.02.2019 14:00:00 13,0 4,0 31 17 N - 10
12.02.2019 13:00:00 12,8 4,5 37 20 N 1019,1 10
12.02.2019 12:00:00 13,0 5,0 29 16 N - 10
12.02.2019 11:00:00 12,0 5,0 34 18 N - 10
12.02.2019 10:00:00 12,2 3,9 18 10 N 1018,9 10
12.02.2019 09:00:00 12,0 3,0 28 15 N - 10
12.02.2019 08:00:00 11,0 5,0 18 10 NNO - 10
12.02.2019 07:00:00 9,4 4,2 15 8 NO 1017,8 10
12.02.2019 06:00:00 9,0 5,0 13 7 NNO - 10
12.02.2019 05:00:00 11,0 5,0 22 12 NNO - 10
12.02.2019 04:00:00 11,1 4,8 16 9 NNO 1017,4 10
12.02.2019 03:00:00 11,0 4,0 21 11 NO - 10
12.02.2019 02:00:00 11,0 5,0 15 8 NO - 10
12.02.2019 01:00:00 11,6 5,9 22 12 NNO 1018,5 10
12.02.2019 00:00:00 12,0 5,0 24 13 NNO - 10
11.02.2019 23:00:00 13,0 7,0 24 13 NNO - 10
11.02.2019 22:00:00 13,5 7,9 37 20 NNO 1019,1 10
11.02.2019 21:00:00 14,0 7,0 34 18 NNO - 10
11.02.2019 20:00:00 14,0 7,0 26 14 NO - 10
11.02.2019 19:00:00 13,3 9,1 21 11 NO 1018,1 10
11.02.2019 18:00:00 13,0 10,0 22 12 NO - 10
11.02.2019 17:00:00 14,0 11,0 28 15 NO - 10
11.02.2019 16:00:00 15,4 11,1 34 18 NO 1018,1 10
11.02.2019 15:00:00 15,0 11,0 28 15 NO - 10
11.02.2019 14:00:00 16,0 11,0 26 14 NNO - 10

tt = Temperatura
td = dewpoint
ff = velocità del vento
dd = direzione del vento
ppp = reduced air pressure
vv = visibility

Stazioni seguenti

WeatherPro
AMSI
MeteoEarth